Location: Austin
(30.3000°N, 97.7500°W)
Time: 05:08:45
(UTC-06:00)

SWIFT - Pass Details

Date: 05 February 2026
Orbit: 394 x 398 km, 20.6° (Epoch: 15 February)

Event Time Altitude Azimuth Distance (km) Brightness Sun altitude
Exits shadow 05:32:58 14° 167° (SSE) 1,238 4.3 -23.2°
Drops below altitude 10° 05:34:05 10° 148° (SSE) 1,433 4.9 -23.0°
Sets 05:36:52 0° 123° (ESE) 2,290 6.5 -22.4°
